Rutland, VT

6:56 PM EST on January 16, 2018 (GMT -0500)
Rutland State

Weather History for KRUT - November, 2011

Change the Weather History Date:

Thursday, November 3, 2011

  Actual Average Record
Temperature  
Mean Temperature 44 °F -  
Max Temperature 55 °F - 79 °F (1982)
Min Temperature 32 °F - 18 °F (1980)
Degree Days  
Heating Degree Days 21    
Month to date heating degree days 66  
Since 1 July heating degree days 702  
Cooling Degree Days 0    
Month to date cooling degree days 0  
Year to date cooling degree days 348  
Moisture  
Dew Point 34 °F    
Average Humidity 68    
Maximum Humidity 89    
Minimum Humidity 47    
Precipitation  
Precipitation 0.00 in - 1.22 in (1951)
Month to date precipitation 0.00  
Year to date precipitation 30.37  
Sea Level Pressure  
Sea Level Pressure 30.00 in    
Wind  
Wind Speed 6 mph (South)    
Max Wind Speed 13 mph    
Max Gust Speed 17 mph    
Visibility 10 miles    
Events      
T = Trace of Precipitation, MM = Missing Value Source: NWS Daily Summary

Daily Weather History Graph

Daily Weather History Graph

Search for Another Location

Airport or City:

Trip Planner

Search our weather history database for the weather conditions in past years. The results will help you decide how hot, cold, wet, or windy it might be!

Date:

Astronomy

Nov. 03, 2011 Rise Set
Actual Time 7:29 AM EDT 5:40 PM EDT
Civil Twilight 6:59 AM EDT 6:10 PM EDT
Nautical Twilight 6:25 AM EDT 6:44 PM EDT
Astronomical Twilight 5:52 AM EDT 7:17 PM EDT
Moon 2:13 PM EDT (11/3) 12:26 AM EDT (11/3)
Length of Visible Light 11h 10m
Length of Day
10h 11m
First Quarter, 60% of the Moon is Illuminated
Nov 3
First Quarter
Nov 10
Full
Nov 18
Last Quarter
Nov 25
New
Dec 2
First Quarter

Hourly Weather History & Observations

Time (EDT) Temp. Windchill Dew Point Humidity Pressure Visibility Wind Dir Wind Speed Gust Speed Precip Events Conditions
12:15 AM 35.6 °F 28.0 °F 30.2 °F 81% 30.19 in 10.0 mi SE 10.4 mph - N/A   Clear
12:35 AM 35.6 °F 28.6 °F 30.2 °F 81% 30.18 in 10.0 mi SE 9.2 mph - N/A   Clear
12:55 AM 35.6 °F 27.1 °F 30.2 °F 81% 30.17 in 10.0 mi ESE 12.7 mph - N/A   Clear
1:35 AM 37.4 °F 30.3 °F 30.2 °F 75% 30.15 in 10.0 mi ESE 10.4 mph - N/A   Clear
2:15 AM 35.6 °F 28.0 °F 30.2 °F 81% 30.14 in 10.0 mi SE 10.4 mph - N/A   Clear
2:55 AM 35.6 °F 28.0 °F 30.2 °F 81% 30.13 in 10.0 mi ESE 10.4 mph - N/A   Clear
3:15 AM 35.6 °F 29.2 °F 30.2 °F 81% 30.13 in 10.0 mi ESE 8.1 mph - N/A   Clear
3:55 AM 35.6 °F 29.9 °F 30.2 °F 81% 30.12 in 10.0 mi East 6.9 mph - N/A   Clear
4:15 AM 35.6 °F 28.6 °F 28.4 °F 75% 30.12 in 10.0 mi SE 9.2 mph - N/A   Clear
4:35 AM 33.8 °F 27.0 °F 28.4 °F 81% 30.12 in 10.0 mi SE 8.1 mph - N/A   Clear
5:35 AM 33.8 °F 27.0 °F 28.4 °F 81% 30.11 in 10.0 mi SE 8.1 mph - N/A   Clear
6:15 AM 33.8 °F 25.8 °F 28.4 °F 81% 30.09 in 10.0 mi SE 10.4 mph - N/A   Clear
6:35 AM 33.8 °F 29.6 °F 28.4 °F 81% 30.08 in 10.0 mi South 4.6 mph - N/A   Clear
6:55 AM 33.8 °F 27.7 °F 30.2 °F 87% 30.07 in 10.0 mi SE 6.9 mph - N/A   Clear
7:15 AM 33.8 °F 27.0 °F 30.2 °F 87% 30.06 in 10.0 mi SE 8.1 mph - N/A   Clear
7:35 AM 35.6 °F 28.6 °F 30.2 °F 81% 30.06 in 10.0 mi SE 9.2 mph - N/A   Clear
7:55 AM 33.8 °F 27.7 °F 28.4 °F 81% 30.06 in 10.0 mi SE 6.9 mph - N/A   Clear
8:15 AM 35.6 °F 28.6 °F 30.2 °F 81% 30.06 in 10.0 mi ESE 9.2 mph - N/A   Clear
8:55 AM 37.4 °F 31.4 °F 32.0 °F 81% 30.05 in 10.0 mi SE 8.1 mph - N/A   Clear
9:15 AM 39.2 °F 34.2 °F 32.0 °F 75% 30.04 in 10.0 mi ESE 6.9 mph - N/A   Clear
9:35 AM 39.2 °F 35.0 °F 33.8 °F 81% 30.04 in 10.0 mi SE 5.8 mph - N/A   Clear
11:15 AM 50.0 °F - 37.4 °F 62% 30.02 in 10.0 mi Calm Calm - N/A   Clear
11:35 AM 51.8 °F - 37.4 °F 58% 30.02 in 10.0 mi West 3.5 mph - N/A   Clear
11:55 AM 53.6 °F - 37.4 °F 54% 30.00 in 10.0 mi South 4.6 mph - N/A   Clear
12:15 PM 53.6 °F - 37.4 °F 54% 29.98 in 10.0 mi Calm Calm - N/A   Clear
12:35 PM 53.6 °F - 37.4 °F 54% 29.97 in 10.0 mi West 4.6 mph - N/A   Clear
12:55 PM 53.6 °F - 37.4 °F 54% 29.96 in 10.0 mi WNW 3.5 mph - N/A   Clear
1:55 PM 55.4 °F - 35.6 °F 47% 29.93 in 10.0 mi South 6.9 mph - N/A   Clear
2:15 PM 55.4 °F - 35.6 °F 47% 29.93 in 10.0 mi SW 8.1 mph - N/A   Clear
2:35 PM 55.4 °F - 37.4 °F 51% 29.91 in 10.0 mi SW 5.8 mph - N/A   Clear
2:55 PM 55.4 °F - 35.6 °F 47% 29.91 in 10.0 mi WSW 6.9 mph - N/A   Clear
3:15 PM 55.4 °F - 37.4 °F 51% 29.91 in 10.0 mi WSW 10.4 mph - N/A   Clear
3:35 PM 55.4 °F - 35.6 °F 47% 29.91 in 10.0 mi SSW 8.1 mph - N/A   Clear
4:15 PM 55.4 °F - 37.4 °F 51% 29.91 in 10.0 mi SSW 8.1 mph - N/A   Clear
4:35 PM 55.4 °F - 37.4 °F 51% 29.90 in 10.0 mi SSW 4.6 mph - N/A   Clear
4:55 PM 55.4 °F - 37.4 °F 51% 29.89 in 10.0 mi SW 4.6 mph - N/A   Clear
5:15 PM 53.6 °F - 37.4 °F 54% 29.89 in 10.0 mi SW 5.8 mph - N/A   Clear
5:35 PM 55.4 °F - 37.4 °F 51% 29.90 in 10.0 mi SW 4.6 mph - N/A   Clear
5:55 PM 53.6 °F - 37.4 °F 54% 29.90 in 10.0 mi SW 5.8 mph - N/A   Clear
6:15 PM 53.6 °F - 37.4 °F 54% 29.90 in 10.0 mi SSW 6.9 mph - N/A   Clear
6:55 PM 51.8 °F - 37.4 °F 58% 29.90 in 10.0 mi Calm Calm - N/A   Clear
7:15 PM 51.8 °F - 37.4 °F 58% 29.90 in 10.0 mi SSW 5.8 mph - N/A   Clear
7:35 PM 51.8 °F - 37.4 °F 58% 29.90 in 10.0 mi WSW 6.9 mph - N/A   Clear
7:55 PM 48.2 °F - 37.4 °F 66% 29.89 in 10.0 mi Calm Calm - N/A   Clear
8:15 PM 46.4 °F - 37.4 °F 71% 29.89 in 10.0 mi Calm Calm - N/A   Clear
8:35 PM 48.2 °F - 39.2 °F 71% 29.91 in 10.0 mi North 6.9 mph - N/A   Mostly Cloudy
9:15 PM - - - N/A% 29.91 in 10.0 mi North 9.2 mph - N/A   Overcast
9:35 PM 48.2 °F - 39.2 °F 71% 29.91 in 10.0 mi NW 3.5 mph - N/A   Overcast
9:55 PM 46.4 °F 44.3 °F 39.2 °F 76% 29.92 in 10.0 mi NW 4.6 mph - N/A   Overcast
10:15 PM 46.4 °F 43.5 °F 39.2 °F 76% 29.92 in 10.0 mi NW 5.8 mph - N/A   Overcast
10:35 PM - - - N/A% 29.92 in 10.0 mi NNW 6.9 mph - N/A   Overcast
11:15 PM 44.6 °F 39.7 °F 37.4 °F 76% 29.94 in 10.0 mi NNW 9.2 mph 17.3 mph N/A   Overcast
11:55 PM 44.6 °F 40.7 °F 37.4 °F 76% 29.95 in 10.0 mi NNW 6.9 mph - N/A   Overcast